map of SHJ home
SHJ - Airport
Location
City:  Sharjah, Sharjah, United Arab Emirates
Name:Sharjah International Airport
ICAO:OMSJ
IATA:SHJ

Details
Type:Airport (Aerodrome, Airfield)
Use:Public/Civil, Military, International (customs port of entry)
Latitude:2519'43"N (25.328575)
Longitude:5531'02"E (55.517150)
Datum:WGS 1984
Elevation:111 ft (34 m)
Variation:2.01E (WMM2015 magnetic declination)
0.05 annual change
Runways:1
Longest:13320 × 148 ft (4060 × 45 m), paved

Time
Time Zone:UTC+4
Local Time:

Weather
METAR:OMSJ 292100Z 09003KT CAVOK 28/18 Q1009
TAF:OMSJ 291658Z 2918/0100 06005KT CAVOK
BECMG 3003/3005 18014KT
BECMG 3007/3009 30015KT PROB30
TEMPO 3009/3013 30018G28KT 4000 BLDU
BECMG 3015/3017 09005KT

Related Locations
Nearby:
Farthest:GMR: 11772 mi / 18945 km
Mangareva [Totegegie], Gambier Islands, PF

Find:

   beyond  
but within

Other Information
Maps:
NOTAMs:
Links:
Sources:

  
flag of United Arab Emirates
flag of Sharjah
  

Sectional Chart

Flight Planning
at skyvector.com

Satellite Image

Google Maps Satellite view

 

Copyright © 2004-2017 Karl L. Swartz. All rights reserved.
The Great Circle Mapper name and logo are trademarks of the Great Circle Mapper.
All other trademarks mentioned herein belong to their respective owners.
Please see credits for attibutions and further copyright information.

  Follow gcmap on Facebook Follow gcmap on Twitter Follow gcmap on Google+ GCmap on LinkedIn

hCard Microformat

Geo Microformat